Tracking 18917 objects as of 16-Jan-2018
HD Live streaming from Space Station
objects crossing your sky now

COSMOS 508

Track COSMOS 508 now!
10-day predictions
COSMOS 508 is classified as:


NORAD ID: 6121
Int'l Code: 1972-057E
Perigee: 1,450.1 km
Apogee: 1,502.8 km
Inclination: 74.0 °
Period: 115.3 minutes
Semi major axis: 7847 km
RCS: 0.6791 m2 (medium)
Launch date: July 20, 1972
Source: Commonwealth of Independent States (former USSR) (CIS)
Launch site: PLESETSK MISSILE AND SPACE COMPLEX (PKMTR)
aabbcc
Your satellite tracking list
Your tracking list is empty




NASA's NSSDC Master Catalog

Two Line Element Set (TLE):
1  6121U 72057E   18015.81013222 -.00000034 +00000-0 -11920-3 0  9990
2  6121 074.0270 148.9068 0033604 025.2384 126.8419 12.48855991073876
Source of the keplerian elements: AFSPC